014  
ASUS46 KPDT 010325  
RWRPDT  
PENDLETON REGIONAL WEATHER ROUNDUP  
NATIONAL WEATHER SERVICE PENDLETON OREGON  
800 PM PDT TUE SEP 30 2014  
 
NOTE: FAIR INDICATES FEW OR NO CLOUDS BELOW 12,000 FEET WITH NO  
SIGNIFICANT WEATHER AND/OR S TO VISIBILITY
.  
 
# INDICATES UNOFFICIAL STATION AND DATA  
 
WAZ520-010410-  
EAST SLOPES OF WASHINGTON CASCADES  
 
CITY SKY/WX TMP DP RH WIND PRES REMARKS
 
#BUMPING DAM N/A 46 N/A N/A W7 N/A  
#CLE ELUM HS N/A 51 41 68 W5 30.03R  
#CLE ELUM 2NW N/A 49 41 74 S3 N/A  
#CLE ELUM LAKE N/A 49 38 66 CALM 30.03R  
#CLIFFDEL 2NW N/A 48 42 80 N2 N/A  
#GLENWOOD N/A 53 45 74 S6 30.01S  
#MANASTASH CYN N/A 49 36 61 CALM 30.01S  
#NELSON N/A 49 43 80 CALM 30.07R  
#NELSON 3SW N/A 48 40 74 SE1 30.25R  
#NILE N/A 48 41 77 CALM 29.29R  
#RONALD 2NW N/A 50 39 66 E1 29.96R  
#SNOWDEN N/A 51 34 52 CALM N/A  
#TEANAWAY 4NE N/A 50 42 74 CALM N/A  
#TROUT LAKE 1NE N/A 52 45 77 NW7 30.06R  

 
 
WAZ521-010410-  
SIMCOE HIGHLANDS  
 
CITY SKY/WX TMP DP RH WIND PRES REMARKS
 
#BICKLETON HS N/A 51 30 44 W9 30.12S  
#CENTERVILLE 4W N/A 54 45 71 NW7 29.82R  
#CENTERVILLE 1SWN/A 52 44 74 W7 30.03R  
#GOLDENDALE N/A 58 41 53 W7 N/A  
#GOLDENDALE 1NE N/A 56 39 53 SW3 N/A  
#GOLDENDALE 1S N/A 54 44 69 W1 30.04R  
#GOLDENDALE 5WNWN/A 55 43 64 W7 30.04R  
#GOODNOE HILLS N/A 56 47 72 NW15 29.99R  
#LYLE 6NE N/A 54 48 80 W9 30.03S  

 
 
WAZ026-010410-  
KITTITAS VALLEY  
 
CITY SKY/WX TMP DP RH WIND PRES REMARKS
 
ELLENSBURG AP CLEAR 54 42 64 NW17 30.04  
#ELLENSBURG CWU N/A 54 42 64 W10 29.97S  
#ELLENSBURG 3NE N/A 52 43 71 NW7 30.03R  
#ELLENSBURG N/A 57 45 64 NW7 N/A  
#KITTITAS 3S N/A 53 43 69 W2 30.00R  
#THORP 6N N/A 50 42 74 NW20G28 30.05R  

 
 
WAZ027-010410-  
YAKIMA VALLEY  
 
CITY SKY/WX TMP DP RH WIND PRES REMARKS
 
SUNNYSIDE AP CLEAR 57 39 51 W3 30.02R  
YAKIMA AIRPORT MOCLEAR 56 40 55 W7 30.04R  
YAKIMA-VAGABOND CLEAR 56 41 57 VRB1 30.06R  
#COWICHE 1N N/A 54 42 64 NW6 30.21R  
#DONALD 2NE N/A 59 37 44 S1 30.36R  
#GRANDVIEW N/A 60 37 42 NW2 30.02R  
#MABTON N/A 60 41 49 W3 30.02R  
#MOXEE 2E N/A 57 31 37 NW6 29.96R  
#NACHES 2SW N/A 54 43 66 CALM 30.00S  
#OUTLOOK DOT N/A N/A N/A N/A NW16 N/A  
#SELAH 8E N/A 50 37 61 W7 N/A  
#TERRACE HTS N/A 57 41 55 N7 29.99R  
#TOPPENISH N/A 59 41 51 N1 29.93R  
#WAPATO 4NE N/A 59 37 44 S1 30.36R  
#WEST VALLEY N/A 57 41 55 N2 30.00R  
#W YAKIMA N/A 56 42 59 S2 30.02R  
#WHITE SWAN 5E N/A 56 41 57 W3 30.02R  
#WILEY CITY 3W N/A 50 23 34 CALM 30.01R  

 
 
WAZ028-010410-  
LOWER COLUMBIA BASIN...WASHINGTON  
 
CITY SKY/WX TMP DP RH WIND PRES REMARKS
 
PASCO CLEAR 60 39 46 NW15 29.99  
PROSSER AWOS N/A 59 39 47 W12 30.05R  
RICHLAND AWOS CLEAR 63 36 36 NW14 30.00R  
#BASIN CITY 5SW N/A 58 42 55 W7 29.99R  
#BENTON CITY N/A 61 38 42 NW1 29.90R  
#CONNELL 5N N/A 56 40 55 W2 29.95R  
#CONNELL 5NW N/A 55 41 59 W5 29.93R  
#ELTOPIA N/A 59 42 53 NW3 29.94R  
#ELTOPIA 6NW N/A 58 42 55 W7 28.96R  
#KENNEWICK 3S N/A 61 39 44 CALM 29.99R  
#PASCO-BROADMOORN/A 63 38 39 W3 29.88R  
#PATERSON N/A 64 39 40 NW6 29.99R  
#PROSSER N/A 60 37 42 W3 30.00R  
#SAGEMOOR 2W N/A 60 40 47 S13 29.84R  
#TOUCHET 2S N/A 53 43 69 CALM 29.97R  
#WEST PASCO N/A 64 40 41 N6 29.98R  

 
 
WAZ029-010410-  
FOOTHILLS OF THE BLUES...WASHINGTON  
 
CITY SKY/WX TMP DP RH WIND PRES REMARKS
 
WALLA WALLA AP CLOUDY 60 40 47 W9 30.03  
#DAYTON SCHOOL N/A 58 36 44 S2 30.00R  
#LOWDEN 2SE N/A 56 46 69 CALM 29.97R  
#PLEASANT VIEW 1N/A 54 38 55 SW1 30.01R  
#PRESCOTT N/A 58 41 53 CALM 29.97R  
#SUDBURY N/A 54 N/A N/A CALM N/A  
#WHITMAN COLLEGEN/A 62 40 44 W3 30.05R  
#WAITSBURG 8N N/A 51 28 41 CALM 29.91S  
#WALLA WALLA 5E N/A 58 39 49 W7 N/A  
#WALLA WALLA U N/A 62 44 52 CALM 29.98R  
#WHITMAN MISSIONN/A 58 48 69 CALM 30.00R  

 
 
WAZ030-010410-  
BLUE MOUNTAINS...WASHINGTON  
 
CITY SKY/WX TMP DP RH WIND PRES REMARKS
 

 
 
ORZ009-041-WAZ024-010410-  
COLUMBIA RIVER GORGE  
 
CITY SKY/WX TMP DP RH WIND PRES REMARKS
 
HOOD RIVER AP CLEAR 59 46 62 CALM 30.11R  
THE DALLES AP CLEAR 62 45 54 W15G24 30.07S  
#ARLINGTON AIRPON/A 58 47 67 W17 30.05R  
#ARLINGTON HS N/A 61 46 58 NW8 29.94R  
#LYLE N/A 62 51 67 NW15G28 30.08R  
#MARYHILL 2W N/A 58 49 72 SE8 N/A  
#MOSIER 1S N/A 58 38 47 CALM N/A  
#MURDOCK N/A 63 52 67 W14G25 30.09R  
#RUFUS DOT N/A N/A N/A N/A NE3 N/A  
 

 
 
ORZ510-010410-  
NORTH CENTRAL OREGON  
 
CITY SKY/WX TMP DP RH WIND PRES REMARKS
 
#CHENOWITH 1W N/A 53 45 74 W25 N/A  
#COW CYN RST AREN/A 50 39 66 W7 N/A  
#DUFUR 9E N/A 51 42 71 NW15 30.12R  
#GRASS VALLEY N/A 51 42 71 NW3 N/A  
#GRASS VALLEY 1SN/A 52 42 69 NW12 30.12R  
#KENT DOT N/A 50 35 56 W15 N/A  
#MAUPIN SCHOOL N/A 58 42 55 CALM 28.97R  
#MORO SCHOOL N/A 55 47 74 W10 30.10R  
#SHANIKO 5WSW N/A 47 35 63 W7 N/A  
#SHANIKO 4NW N/A 47 39 74 W8 30.12R  
#TYGH VALLEY 2NEN/A 59 43 55 NW7 30.06S  
#WAPANITIA AIRPON/A 53 43 69 CALM 30.09R  
#WASCO 5NE N/A 54 44 69 W7 30.06R  

 
 
ORZ511-010410-  
CENTRAL OREGON  
 
CITY SKY/WX TMP DP RH WIND PRES REMARKS
 
BEND AIRPORT MOCLDY 50 37 61 NW12 30.16R  
MADRAS AIRPORT MOCLDY 54 41 61 N13 30.15R  
REDMOND AIRPORT MOCLDY 52 36 54 NW7 30.14R  
#BEND 6E N/A 50 37 61 CALM 30.07F  
#BEND 1SW N/A 48 38 68 CALM N/A  
#BEND-KIM LN N/A 50 41 71 NW1 30.12R  
#CROOKED RVR RANN/A 54 40 59 N18G25 30.10R  
#CULVER N/A 53 40 61 CALM 30.10R  
#LAKE BILLY CHINN/A 55 21 26 N6 30.17S  
#POWELL BUTTE 3EN/A 52 38 59 N9 N/A  
#POWELL BUTTE N/A 51 39 63 N3 29.78R  
#PRINEVILLE 3N N/A 52 41 66 W10 30.07R  
#WARM SPRINGS N/A 58 44 60 SW6 30.10R  
 
 
ORZ509-010410-  
EAST SLOPES OF OREGON CASCADES  
 
CITY SKY/WX TMP DP RH WIND PRES REMARKS
 
#BLUE BOX PASS N/A 43 -8 11 NW12 N/A WCI 37  
#CAMP SHERMAN N/A 51 38 61 VRB3 30.17R  
#LA PINE DOT N/A 45 30 55 SW2 N/A  
#LA PINE 4NW N/A 43 33 67 CALM 30.14R  
#LAVA BUTTE DOT N/A 45 33 63 CALM N/A  
#SISTERS AIRPOR N/A 50 45 83 N3 29.91S  
#SISTERS ODOT N/A 51 N/A N/A S6 N/A  
#SISTERS 1NW N/A 51 38 61 N7 N/A  
#SISTERS 3N N/A 48 36 63 CALM N/A  
#SUNRIVER N/A 45 36 70 CALM 30.01R  
#SUNRIVER AP N/A 46 35 65 CALM 30.07R  
#SUTTLE LK DOT N/A 43 39 86 W29G39 N/A WCI 33  
#TUMALO 3W N/A 49 40 71 N6 30.00R  
#WANOGA BUTTE D N/A 39 33 79 NW7 N/A  
 

 
 
ORZ044-010410-  
LOWER COLUMBIA BASIN...OREGON  
 
CITY SKY/WX TMP DP RH WIND PRES REMARKS
 
HERMISTON CLEAR 60 44 55 W12 30.01R  
#BOARDMAN SCHOOLN/A 65 52 63 W15G24 30.02R  
#BOARDMAN 3W N/A 60 44 55 SW3 29.71S  
#BOARDMAN 8SW N/A 58 48 69 SW9 30.02R  
#ECHO 8SW N/A 61 41 48 W14 29.99R  
#IONE SCHOOL N/A 59 43 55 SW9 30.04R  
#IRRIGON 4NW N/A 60 40 47 W7 N/A  
#UMATILLA SCHOOLN/A 61 50 67 W7 30.06R  
#UMATILLA N/A 63 43 48 SW7 29.98R  

 
 
ORZ507-010410-  
NORTHERN FOOTHILLS OF THE BLUES  
 
CITY SKY/WX TMP DP RH WIND PRES REMARKS
 
PENDLETON AIRPT PTCLDY 58 40 51 W20 30.01R  
#ADAMS 3WNW N/A 57 41 55 W9 29.98R  
#ATHENA N/A 57 41 55 W5 30.02R  
#CAYUSE N/A 58 43 57 SW10 29.99R  
#HELIX SCHOOL N/A 57 41 55 W1 29.99R  
#HELIX 3N N/A 53 41 64 W7 29.99R  
#HELIX 6SW N/A 56 42 59 W8 30.01R  
#HOLDMAN 5SE N/A 57 44 62 W12 30.02R  
#HOLDMAN 6E N/A 55 41 59 E2 29.81R  
#M-F GROVE ELEM N/A 56 47 72 CALM 30.01R  
#M-FREEWATER 5SEN/A 53 47 80 CALM 30.02R  
#PENDLETON DNTN N/A 62 35 36 NW2 28.82R  
#PDT AQUATIC CTRN/A 62 39 43 W14 30.00S  
#PENDLETON 5NE N/A 58 43 57 CALM 29.98R  
#PDT SUNRIDGE N/A 60 43 53 W8 30.02R  
#PENDLETON 7NW N/A 59 43 55 W8 31.64  
#PILOT ROCK N/A 57 37 47 S7 30.06R  
#TUTUILLA N/A 56 43 62 W8 30.01R  
#UMAPINE 2E N/A 55 48 77 CALM 29.98R  
 

 
 
ORZ508-010410-  
SOUTHERN FOOTHILLS OF THE BLUES  
 
CITY SKY/WX TMP DP RH WIND PRES REMARKS
 
LEXINGTON MOCLEAR 55 39 55 SW3 30.09R  
#AJAX N/A 54 36 50 W7 30.03R  
#CONDON SCHOOL N/A 51 41 68 CALM 30.04R  
#CONDON 5W N/A 47 37 68 W13 30.07R WCI 41  
#FOSSIL SCHOOL N/A 53 39 59 W2 30.07R  
#HEPPNER EOC N/A 55 40 57 W5 30.00R  
#HEPPNER 4NE N/A 51 39 63 NW7 30.04R  
#LEXINGTON 2SE N/A 57 41 55 CALM 30.03R  
#MIKKALO N/A 56 40 55 W13 30.07R  
#RUGGS 5NE N/A 51 37 59 W10 30.27R  
#RUGGS 2SW N/A 51 38 61 W10 30.06R  
 

 
 
ORZ502-503-010410-  
BLUE MOUNTAINS  
 
CITY SKY/WX TMP DP RH WIND PRES REMARKS
 
MEACHAM CLOUDY 47 41 79 CALM 30.06R  
#BATTLE MTN DOT N/A 46 39 76 W2 N/A  
#HARDMAN 10S N/A 45 36 70 CALM 30.14R  
#HEPPNER 15SE N/A 46 38 73 CALM 30.00R  
#LADD CYN SMT N/A 44 36 73 W3 N/A  
#LADD CREEK ODOTN/A 44 34 68 SW3 N/A  
#LONG CREEK HS N/A 47 39 74 W5 30.04R  
#N POWDER DOT N/A 47 38 71 N8 N/A  
#PIKES PEAK N/A 50 38 63 S7 27.99S  
#TROY SCHOOL N/A 57 42 57 CALM 29.83R  
#UKIAH N/A 50 37 61 W2 30.03R  
#WESTON 4E N/A 50 41 71 SW1 29.96R  

 
 
ORZ505-010410-  
JOHN DAY BASIN  
 
CITY SKY/WX TMP DP RH WIND PRES REMARKS
 
JOHN DAY PTCLDY 48 38 68 W6 30.10R  
#JOHN DAY KJDY N/A 48 42 80 CALM 30.21R  
#DAYVILLE SCHOOLN/A 55 37 51 CALM 30.05R  
#MONUMENT HS N/A 55 35 47 CALM 30.07R  
#MT. VERNON 5SE N/A 46 37 71 CALM 30.04R  
#WINLOCK N/A 51 37 59 CALM 30.16R  

 
 
ORZ506-010410-  
OCHOCO AND JOHN DAY HIGHLANDS  
 
CITY SKY/WX TMP DP RH WIND PRES REMARKS
 
#BUCK CREEK DOT N/A 50 38 63 N10 N/A  
#HORSE RIDGE DO N/A 48 36 63 NW10 N/A  
#KEYES SMT DOT N/A 46 37 71 NW12 N/A WCI 40  
#PAULINA SCHOOL N/A 51 33 50 NW2 30.09R  
#PINE MTN OBS N/A 38 34 85 N6 N/A  
#PRAIRIE CITY N/A 39 32 76 CALM 30.19R  
#SENECA N/A 42 N/A N/A CALM N/A  
#SENECA 9NW N/A 39 32 76 CALM 30.01R  

 
 
ORZ049-010410-  
GRANDE RONDE VALLEY  
 
CITY SKY/WX TMP DP RH WIND PRES REMARKS
 
LA GRANDE MOCLDY 48 36 63 CALM 30.05R  
#COVE N/A 50 43 77 CALM 29.97R  
#COVE SCHOOL N/A 49 42 77 E1 30.02S  
#COVE 6NW N/A 49 40 71 SW1 30.06R  
#ELGIN 3N N/A 52 37 56 CALM 29.77R  
#ELGIN 1E N/A 53 37 54 CALM N/A  
#IMBLER SCHOOL N/A 54 39 57 W6 30.00R  
#LADD CYN DOT N/A 47 42 83 SE8 N/A  
#UNION 1S N/A 51 41 68 CALM 29.93R  

 
 
ORZ050-010410-  
WALLOWA COUNTY  
 
CITY SKY/WX TMP DP RH WIND PRES REMARKS
 
JOSEPH AIRPORT MOCLDY 43 39 86 CALM 30.06R  
#ENTERPRISE AP N/A 45 37 73 E2 29.98R  
#ENTERPRISE HS N/A 45 40 82 CALM 30.05R  
#IMNAHA SCHOOL N/A 54 39 57 SW6 29.96R  
#JOSEPH 3N N/A 41 36 82 SE1 30.06R  
#JOSEPH 3W N/A 43 35 73 CALM 29.90R  
#LOSTINE N/A 47 41 79 CALM 29.80R  
#MT HOWARD 8000 N/A 30 28 92 W7 30.06R  
#PROMISE 1S N/A 46 37 71 CALM 30.14R  
#SHEEP RDG 7000 N/A 34 31 89 CALM 30.06S  
#WALLOWA SCHOOL N/A 50 41 71 CALM 30.91R  
 

 
 
CLICK HERE TO GO TO PREVIOUS BULLETINS.

The Nexlab OR Page
The Nexlab WA Page Main Text Page